• In Deutschland
  • Länderverzeichnis
  • Für 7 Tage
  • Wassertemperatur
  • Satellitenkarten
  • Wetterkarte
  • Widgets
  • user-avatar
    Anmelden

    Stündliche Wetter Enkamp

    Heute, 24 November, Freitag

    Zeit Temperatur Niederschläge Wind Luftdruck Luftfeuchtigkeit
    00:00 +3°C° 0 mm 1 m/S 623 mmHg 76%
    01:00 +3°C° 0 mm 1 m/S 623 mmHg 75%
    02:00 +4°C° 0 mm 1 m/S 623 mmHg 74%
    03:00 +4°C° 0 mm 1 m/S 623 mmHg 73%
    04:00 +4°C° 0 mm 1 m/S 623 mmHg 72%
    05:00 +4°C° 0 mm 1 m/S 623 mmHg 70%
    06:00 +5°C° 0 mm 1 m/S 624 mmHg 70%
    07:00 +5°C° 0,1 mm 1 m/S 624 mmHg 70%
    08:00 +5°C° 0,1 mm 2 m/S 624 mmHg 69%
    09:00 +6°C° 0,1 mm 2 m/S 625 mmHg 69%
    10:00 +7°C° 0 mm 2 m/S 625 mmHg 66%
    11:00 +8°C° 0 mm 2 m/S 625 mmHg 63%
    12:00 +9°C° 0 mm 2 m/S 626 mmHg 60%
    13:00 +9°C° 0 mm 2 m/S 625 mmHg 63%
    14:00 +9°C° 0 mm 2 m/S 625 mmHg 65%
    15:00 +8°C° 0 mm 2 m/S 625 mmHg 67%
    16:00 +7°C° 0 mm 2 m/S 624 mmHg 73%
    17:00 +6°C° 0 mm 1 m/S 623 mmHg 79%
    18:00 +5°C° 0 mm 1 m/S 623 mmHg 85%
    19:00 +4°C° 0 mm 1 m/S 623 mmHg 85%
    20:00 +4°C° 0 mm 1 m/S 622 mmHg 85%
    21:00 +4°C° 0 mm 1 m/S 622 mmHg 84%
    22:00 +4°C° 0 mm 1 m/S 622 mmHg 83%
    23:00 +4°C° 0 mm 1 m/S 622 mmHg 81%

    Morgen, 25 November, Samstag

    Zeit Temperatur Niederschläge Wind Luftdruck Luftfeuchtigkeit
    00:00 +3°C° 0 mm 2 m/S 622 mmHg 79%
    01:00 +3°C° 0 mm 2 m/S 622 mmHg 80%
    02:00 +4°C° 0 mm 1 m/S 621 mmHg 82%
    03:00 +4°C° 0 mm 1 m/S 621 mmHg 83%
    04:00 +3°C° 0,4 mm 2 m/S 622 mmHg 86%
    05:00 +3°C° 0,4 mm 2 m/S 622 mmHg 89%
    06:00 +2°C° 0,4 mm 3 m/S 622 mmHg 92%
    07:00 +2°C° 0,2 mm 3 m/S 623 mmHg 90%
    08:00 +2°C° 0,2 mm 3 m/S 623 mmHg 87%
    09:00 +2°C° 0,2 mm 3 m/S 624 mmHg 85%
    10:00 +3°C° 0 mm 3 m/S 624 mmHg 80%
    11:00 +3°C° 0 mm 3 m/S 625 mmHg 76%
    12:00 +4°C° 0 mm 3 m/S 625 mmHg 71%
    13:00 +4°C° 0 mm 3 m/S 625 mmHg 71%
    14:00 +3°C° 0 mm 3 m/S 625 mmHg 71%
    15:00 +3°C° 0 mm 3 m/S 625 mmHg 71%
    16:00 +1°C° 0,1 mm 3 m/S 625 mmHg 75%
    17:00 0°C° 0,1 mm 3 m/S 625 mmHg 79%
    18:00 -1°C° 0,1 mm 3 m/S 625 mmHg 83%
    19:00 -2°C° 0,1 mm 3 m/S 625 mmHg 83%
    20:00 -2°C° 0,1 mm 3 m/S 625 mmHg 82%
    21:00 -4°C° 0,1 mm 3 m/S 625 mmHg 82%
    22:00 -4°C° 0 mm 3 m/S 625 mmHg 82%
    23:00 -4°C° 0 mm 3 m/S 626 mmHg 81%

    übermorgen, 26 November, Sonntag

    Zeit Temperatur Niederschläge Wind Luftdruck Luftfeuchtigkeit
    00:00 -5°C° 0 mm 3 m/S 626 mmHg 80%
    01:00 -5°C° 0 mm 3 m/S 626 mmHg 80%
    02:00 -6°C° 0 mm 3 m/S 626 mmHg 79%
    03:00 -6°C° 0 mm 3 m/S 626 mmHg 79%
    04:00 -6°C° 0 mm 3 m/S 626 mmHg 77%
    05:00 -7°C° 0 mm 3 m/S 626 mmHg 76%
    06:00 -7°C° 0 mm 3 m/S 626 mmHg 74%
    07:00 -6°C° 0 mm 3 m/S 627 mmHg 67%
    08:00 -5°C° 0 mm 3 m/S 627 mmHg 59%
    09:00 -4°C° 0 mm 3 m/S 628 mmHg 52%
    10:00 -2°C° 0 mm 3 m/S 629 mmHg 47%
    11:00 -1°C° 0 mm 3 m/S 629 mmHg 42%
    12:00 0°C° 0 mm 3 m/S 629 mmHg 37%
    13:00 0°C° 0 mm 3 m/S 629 mmHg 39%
    14:00 -1°C° 0 mm 3 m/S 629 mmHg 41%
    15:00 -1°C° 0 mm 3 m/S 629 mmHg 43%
    16:00 -2°C° 0 mm 3 m/S 628 mmHg 50%
    17:00 -5°C° 0 mm 3 m/S 628 mmHg 56%
    18:00 -7°C° 0 mm 3 m/S 628 mmHg 63%
    19:00 -7°C° 0 mm 3 m/S 628 mmHg 61%
    20:00 -6°C° 0 mm 2 m/S 628 mmHg 59%
    21:00 -6°C° 0 mm 2 m/S 628 mmHg 57%
    22:00 -6°C° 0 mm 2 m/S 628 mmHg 55%
    23:00 -6°C° 0 mm 2 m/S 628 mmHg 52%

    27 November, Montag

    Zeit Temperatur Niederschläge Wind Luftdruck Luftfeuchtigkeit
    00:00 -6°C° 0 mm 2 m/S 628 mmHg 50%
    01:00 -6°C° 0 mm 2 m/S 628 mmHg 49%
    02:00 -6°C° 0 mm 2 m/S 628 mmHg 48%
    03:00 -6°C° 0 mm 2 m/S 627 mmHg 47%
    04:00 -6°C° 0 mm 2 m/S 627 mmHg 48%
    05:00 -6°C° 0 mm 2 m/S 627 mmHg 48%
    06:00 -6°C° 0 mm 2 m/S 627 mmHg 48%
    07:00 -5°C° 0 mm 2 m/S 628 mmHg 44%
    08:00 -1°C° 0 mm 1 m/S 629 mmHg 40%
    09:00 +1°C° 0 mm 1 m/S 629 mmHg 36%
    10:00 +2°C° 0 mm 1 m/S 630 mmHg 35%
    11:00 +3°C° 0 mm 1 m/S 630 mmHg 34%
    12:00 +5°C° 0 mm 1 m/S 630 mmHg 33%
    13:00 +4°C° 0 mm 1 m/S 629 mmHg 37%
    14:00 +4°C° 0 mm 1 m/S 629 mmHg 41%
    15:00 +3°C° 0 mm 1 m/S 628 mmHg 45%
    16:00 +1°C° 0 mm 1 m/S 628 mmHg 52%
    17:00 -1°C° 0 mm 1 m/S 627 mmHg 58%
    18:00 -3°C° 0 mm 1 m/S 626 mmHg 65%
    19:00 -3°C° 0 mm 1 m/S 626 mmHg 63%
    20:00 -3°C° 0 mm 1 m/S 626 mmHg 61%
    21:00 -3°C° 0 mm 1 m/S 626 mmHg 58%
    22:00 -3°C° 0 mm 1 m/S 625 mmHg 56%
    23:00 -3°C° 0 mm 1 m/S 625 mmHg 54%

    28 November, Dienstag

    Zeit Temperatur Niederschläge Wind Luftdruck Luftfeuchtigkeit
    00:00 -3°C° 0 mm 1 m/S 625 mmHg 52%
    01:00 -3°C° 0 mm 1 m/S 624 mmHg 51%
    02:00 -3°C° 0 mm 1 m/S 624 mmHg 50%
    03:00 -3°C° 0 mm 1 m/S 623 mmHg 48%
    04:00 -3°C° 0 mm 1 m/S 623 mmHg 47%
    05:00 -3°C° 0 mm 1 m/S 622 mmHg 45%
    06:00 -3°C° 0 mm 1 m/S 622 mmHg 43%
    07:00 -2°C° 0 mm 1 m/S 622 mmHg 40%
    08:00 0°C° 0 mm 1 m/S 623 mmHg 36%
    09:00 +2°C° 0 mm 1 m/S 623 mmHg 33%
    10:00 +3°C° 0 mm 1 m/S 623 mmHg 31%
    11:00 +5°C° 0 mm 1 m/S 623 mmHg 29%
    12:00 +6°C° 0 mm 1 m/S 623 mmHg 27%
    13:00 +6°C° 0 mm 1 m/S 622 mmHg 31%
    14:00 +5°C° 0 mm 1 m/S 622 mmHg 35%
    15:00 +4°C° 0 mm 1 m/S 621 mmHg 39%
    16:00 +2°C° 0 mm 1 m/S 620 mmHg 45%
    17:00 0°C° 0 mm 1 m/S 619 mmHg 52%
    18:00 -2°C° 0 mm 1 m/S 618 mmHg 58%
    19:00 -2°C° 0 mm 1 m/S 618 mmHg 57%
    20:00 -2°C° 0 mm 1 m/S 618 mmHg 56%
    21:00 -3°C° 0 mm 1 m/S 617 mmHg 55%
    22:00 -3°C° 0 mm 1 m/S 617 mmHg 54%
    23:00 -3°C° 0 mm 1 m/S 616 mmHg 53%

    29 November, Mittwoch

    Zeit Temperatur Niederschläge Wind Luftdruck Luftfeuchtigkeit
    00:00 -3°C° 0 mm 1 m/S 616 mmHg 53%
    01:00 -3°C° 0 mm 1 m/S 616 mmHg 54%
    02:00 -3°C° 0 mm 1 m/S 616 mmHg 55%
    03:00 -5°C° 0 mm 2 m/S 615 mmHg 57%
    04:00 -4°C° 0,2 mm 2 m/S 615 mmHg 63%
    05:00 -4°C° 0,2 mm 2 m/S 615 mmHg 69%
    06:00 -4°C° 0,2 mm 2 m/S 615 mmHg 75%
    07:00 -3°C° 0,3 mm 2 m/S 616 mmHg 74%
    08:00 -3°C° 0,3 mm 2 m/S 616 mmHg 74%
    09:00 -2°C° 0,3 mm 2 m/S 617 mmHg 74%
    10:00 -2°C° 0,1 mm 3 m/S 617 mmHg 70%
    11:00 -2°C° 0,1 mm 3 m/S 617 mmHg 66%
    12:00 -1°C° 0,1 mm 3 m/S 617 mmHg 61%
    13:00 -1°C° 0 mm 3 m/S 616 mmHg 60%
    14:00 -2°C° 0 mm 3 m/S 616 mmHg 59%
    15:00 -2°C° 0 mm 3 m/S 616 mmHg 57%
    16:00 -5°C° 0 mm 3 m/S 616 mmHg 62%
    17:00 -6°C° 0 mm 3 m/S 615 mmHg 66%
    18:00 -8°C° 0 mm 3 m/S 615 mmHg 71%
    19:00 -7°C° 0 mm 3 m/S 615 mmHg 70%
    20:00 -7°C° 0 mm 3 m/S 616 mmHg 70%
    21:00 -7°C° 0 mm 3 m/S 616 mmHg 69%
    22:00 -7°C° 0 mm 3 m/S 616 mmHg 72%
    23:00 -7°C° 0 mm 3 m/S 616 mmHg 74%
    Mehr zeigen